STARLINK-1892 (46743 NORAD) Tracking and Keplerian Element Data

This shows tracking and keplerian element data for the satellite.

Feedback or suggestion? Click here.




ElementValue
Catalog46743
NameSTARLINK-1892
Epoch Orbit515
Epoch Day328.16667824
Epoch Year2020
RAAN15.4261
Inclination53.0552
Eccentricity0.0001186
Argument of Perigee59.1368
Mean Anonmoly192.8649
Mean Motion15.62881465
Decay Rate-0.00408385
L11 46743U 20074E 20328.16667824 -.00408385 00000-0 -46587-2 0 9994
L22 46743 53.0552 15.4261 0001186 59.1368 192.8649 15.62881465 5159

Live tracking and technical data element details for STARLINK-1892 (NORAD 46743). STARLINK-1892 can be tracked NOW for your location showing map with azimuth and elevation plus other details from your city location.

Track the satellite on the map from your city or location and see movement details for azimuth, elevation, latitude, longitude, range, height, and movement on the map or in text.







IsCatalogInMostPopularTable: catalog: 46743, numindb: 5
Update: records affected: 1



GetName: 46743 STARLINK-1892

Hit Count: updated at: Tue, 24 Nov 2020 12:13:05 GMT